Location: ?astrovice
(49.6513°N, 14.9287°E)
Time: 13:24:21
(UTC+00:00)

STARLINK-1214 - Pass Details

Date: 09 April 2020
Orbit: 376 x 383 km, 53.0° (Epoch: 28 May)

Event Time Altitude Azimuth Distance (km) Brightness Sun altitude
Rises 18:16:30 0° 292° (WNW) 2,273 9.7 -5.7°
Reaches altitude 10° 18:18:34 10° 293° (WNW) 1,418 7.6 -6.1°
Maximum altitude 18:21:44 89° 14° (NNE) 393 2.9 -6.5°
Drops below altitude 10° 18:24:54 10° 113° (ESE) 1,414 5.0 -7.0°
Enters shadow 18:25:00 - 113° (ESE) 1,454 5.1 -7.0°
